Flag for Germany Weather past 2 weeks in Bielefeld, North Rhine-Westphalia, Germany

Now
78 °F

Passing clouds.


Feels Like: 78 °F
Forecast: 60 / 87 °F
Wind: 1 mph from South

Location: Bad Lippspringe

Current Time: Aug 2, 2015 at 7:06:58 PM

Latest Report: Aug 2, 2015 at 6:00 PM


Visibility: 31 mi

Pressure: 30.09 "Hg

Humidity: 32%

Dew point: 46 °F

Location of BielefeldLocation

Historic Weather in Bielefeld — Graph

°F

Bielefeld temperature yesterday

Maximum temperature yesterday: 76 °F (at 6:00 PM)
Minimum temperature yesterday: 49 °F (at 12:00 AM)
Average temperature yesterday: 63 °F

Past Weeks' High & Low Weather Summary

 TemperatureHumidityPressure
High78 °F (Aug 2, 5:00 PM)100% (Jul 20, 5:00 AM)30.16 "Hg (Jul 20, 5:00 AM)
Low43 °F (Jul 31, 5:00 AM)30% (Aug 2, 4:00 PM)29.50 "Hg (Jul 25, 11:00 AM)
Average62 °F74%29.88 "Hg
* Reported Jul 18 6:00 PM — Aug 2 6:00 PM, Bielefeld, Weather by CustomWeather, © 2015

Note: Actual official high and low records may vary slightly from our data, if they occured in-between our weather recording intervals... More about our weather records

Advertising

Bielefeld weather history for previous 24 hours

 ConditionsComfort  
Time TempWeatherWind HumidityBarometerVisibility
6:00 PM
Sun, Aug 2
78 °FPassing clouds.1 mph32%30.09 "Hg31 mi
5:00 PM78 °FSunny.1 mph36%30.10 "Hg22 mi
4:00 PM77 °FSunny.2 mph30%30.11 "Hg19 mi
3:00 PM74 °FPassing clouds.2 mph35%30.13 "Hg18 mi
2:00 PM74 °FSunny.2 mph42%30.14 "Hg14 mi
1:00 PM72 °FSunny.1 mph44%30.15 "Hg15 mi
12:00 PM70 °FSunny.2 mph47%30.16 "Hg16 mi
11:00 AM68 °FSunny.2 mph50%30.16 "Hg22 mi
10:00 AM65 °FSunny.1 mph61%30.15 "Hg13 mi
9:00 AM61 °FSunny.1 mph71%30.14 "Hg9 mi
8:00 AM57 °FSunny.1 mph81%30.14 "Hg9 mi
7:00 AM50 °FFog.1 mph96%30.14 "Hg4 mi
6:00 AM48 °FFog.No wind98%30.13 "Hg4 mi
5:00 AM49 °FPassing clouds.1 mph98%30.11 "Hg7 mi
4:00 AM50 °FClear.1 mph97%30.10 "Hg6 mi
1:00 AM54 °FClear.1 mph91%30.07 "Hg15 mi
11:00 PM
Sat, Aug 1
57 °FClear.No wind89%30.04 "Hg13 mi
10:00 PM60 °FClear.1 mph83%30.02 "Hg13 mi
8:00 PM72 °FPassing clouds.2 mph50%29.96 "Hg22 mi
7:00 PM73 °FSunny.2 mph44%29.95 "Hg25 mi
Weather by CustomWeather, © 2015

See weather overviewHow to use our weather pages